When you browse on this site, cookies collect data to enhance your experience and personalize the content and advertising you see.
Visit our Privacy Policy to learn more. By continuing to use the site, you agree to this use of cookies and data.
  • In Spain
  • List of Countries
  • For 7 days
  • Water Temperature
  • Satellite Maps
  • Weather Map
  • Weather Widgets
  • user-avatar
    Login

    Hourly Weather Veliko Tarnovo

    Today, 18 January, Friday

    Time Temperature Precipitation Wind Pressure Humidity
    00:00 +2°C° 0 mm 2 mps 738 mmHg 64%
    01:00 +2°C° 0 mm 2 mps 738 mmHg 64%
    02:00 +2°C° 0 mm 2 mps 738 mmHg 65%
    03:00 +2°C° 0 mm 2 mps 738 mmHg 66%
    04:00 +2°C° 0 mm 2 mps 738 mmHg 67%
    05:00 +2°C° 0 mm 2 mps 738 mmHg 68%
    06:00 +3°C° 0 mm 1 mps 738 mmHg 69%
    07:00 +3°C° 0 mm 1 mps 738 mmHg 70%
    08:00 +3°C° 0 mm 1 mps 738 mmHg 71%
    09:00 +4°C° 0 mm 1 mps 738 mmHg 71%
    10:00 +5°C° 0 mm 1 mps 738 mmHg 70%
    11:00 +7°C° 0 mm 1 mps 738 mmHg 70%
    12:00 +6°C° 0 mm 0 mps 738 mmHg 71%
    13:00 +7°C° 0 mm 0 mps 738 mmHg 71%
    14:00 +7°C° 0 mm 0 mps 737 mmHg 71%
    15:00 +6°C° 0 mm 0 mps 737 mmHg 73%
    16:00 +6°C° 0 mm 1 mps 737 mmHg 75%
    17:00 +5°C° 0 mm 1 mps 737 mmHg 77%
    18:00 +5°C° 0 mm 1 mps 737 mmHg 76%
    19:00 +4°C° 0 mm 1 mps 737 mmHg 75%
    20:00 +4°C° 0 mm 1 mps 737 mmHg 74%
    21:00 +4°C° 0 mm 1 mps 738 mmHg 72%
    22:00 +4°C° 0 mm 1 mps 738 mmHg 70%
    23:00 +3°C° 0 mm 1 mps 738 mmHg 68%

    Tomorrow, 19 January, Saturday

    Time Temperature Precipitation Wind Pressure Humidity
    00:00 +3°C° 0 mm 1 mps 738 mmHg 68%
    01:00 +3°C° 0 mm 1 mps 738 mmHg 68%
    02:00 +3°C° 0 mm 1 mps 739 mmHg 68%
    03:00 +3°C° 0 mm 1 mps 739 mmHg 71%
    04:00 +3°C° 0 mm 1 mps 739 mmHg 73%
    05:00 +3°C° 0 mm 1 mps 739 mmHg 76%
    06:00 +3°C° 0.2 mm 1 mps 740 mmHg 79%
    07:00 +2°C° 0.2 mm 0 mps 740 mmHg 81%
    08:00 +2°C° 0.2 mm 0 mps 741 mmHg 84%
    09:00 +2°C° 0.4 mm 0 mps 741 mmHg 85%
    10:00 +4°C° 0.4 mm 1 mps 741 mmHg 86%
    11:00 +4°C° 0.4 mm 1 mps 742 mmHg 87%
    12:00 +5°C° 0 mm 1 mps 742 mmHg 86%
    13:00 +5°C° 0 mm 1 mps 741 mmHg 84%
    14:00 +6°C° 0 mm 1 mps 741 mmHg 83%
    15:00 +5°C° 0 mm 1 mps 741 mmHg 86%
    16:00 +4°C° 0 mm 1 mps 741 mmHg 89%
    17:00 +3°C° 0 mm 1 mps 741 mmHg 91%
    18:00 +2°C° 0 mm 2 mps 742 mmHg 92%
    19:00 +2°C° 0 mm 2 mps 742 mmHg 92%
    20:00 +1°C° 0 mm 2 mps 742 mmHg 92%
    21:00 +1°C° 0 mm 2 mps 742 mmHg 92%
    22:00 +1°C° 0 mm 2 mps 742 mmHg 92%
    23:00 +1°C° 0 mm 2 mps 742 mmHg 91%

    Day after tomorrow, 20 January, Sunday

    Time Temperature Precipitation Wind Pressure Humidity
    00:00 +1°C° 0 mm 2 mps 742 mmHg 92%
    01:00 +1°C° 0 mm 2 mps 742 mmHg 92%
    02:00 +1°C° 0 mm 2 mps 742 mmHg 92%
    03:00 +1°C° 0 mm 2 mps 741 mmHg 92%
    04:00 +1°C° 0 mm 2 mps 741 mmHg 92%
    05:00 +2°C° 0 mm 1 mps 740 mmHg 92%
    06:00 +3°C° 0 mm 1 mps 740 mmHg 92%
    07:00 +3°C° 0 mm 1 mps 740 mmHg 92%
    08:00 +3°C° 0 mm 1 mps 740 mmHg 92%
    09:00 +4°C° 0 mm 1 mps 740 mmHg 90%
    10:00 +5°C° 0 mm 1 mps 740 mmHg 88%
    11:00 +6°C° 0 mm 1 mps 740 mmHg 86%
    12:00 +7°C° 0 mm 1 mps 739 mmHg 85%
    13:00 +8°C° 0 mm 1 mps 739 mmHg 84%
    14:00 +8°C° 0 mm 1 mps 738 mmHg 83%
    15:00 +7°C° 0 mm 1 mps 738 mmHg 86%
    16:00 +6°C° 0 mm 1 mps 738 mmHg 90%
    17:00 +5°C° 0 mm 1 mps 737 mmHg 93%
    18:00 +5°C° 0.1 mm 1 mps 737 mmHg 94%
    19:00 +4°C° 0.1 mm 1 mps 738 mmHg 95%
    20:00 +4°C° 0.1 mm 1 mps 738 mmHg 96%
    21:00 +4°C° 0.4 mm 1 mps 738 mmHg 96%
    22:00 +4°C° 0.4 mm 1 mps 738 mmHg 97%
    23:00 +3°C° 0.4 mm 1 mps 738 mmHg 97%

    21 January, Monday

    Time Temperature Precipitation Wind Pressure Humidity
    00:00 +3°C° 0.2 mm 1 mps 738 mmHg 97%
    01:00 +3°C° 0.2 mm 1 mps 738 mmHg 97%
    02:00 +3°C° 0.2 mm 1 mps 738 mmHg 97%
    03:00 +3°C° 0 mm 1 mps 738 mmHg 97%
    04:00 +3°C° 0 mm 1 mps 738 mmHg 96%
    05:00 +3°C° 0 mm 1 mps 738 mmHg 96%
    06:00 +2°C° 0 mm 1 mps 739 mmHg 95%
    07:00 +2°C° 0 mm 1 mps 739 mmHg 95%
    08:00 +2°C° 0 mm 1 mps 739 mmHg 94%
    09:00 +3°C° 0 mm 1 mps 740 mmHg 89%
    10:00 +3°C° 0 mm 2 mps 740 mmHg 84%
    11:00 +4°C° 0 mm 2 mps 741 mmHg 79%
    12:00 +5°C° 0 mm 2 mps 741 mmHg 77%
    13:00 +5°C° 0 mm 2 mps 741 mmHg 75%
    14:00 +6°C° 0 mm 2 mps 741 mmHg 73%
    15:00 +5°C° 0 mm 2 mps 741 mmHg 77%
    16:00 +5°C° 0 mm 1 mps 741 mmHg 80%
    17:00 +3°C° 0 mm 0 mps 742 mmHg 83%
    18:00 +4°C° 0 mm 1 mps 742 mmHg 85%
    19:00 +3°C° 0 mm 1 mps 743 mmHg 87%
    20:00 +3°C° 0 mm 1 mps 743 mmHg 89%
    21:00 +3°C° 0 mm 1 mps 743 mmHg 89%
    22:00 +3°C° 0 mm 1 mps 744 mmHg 89%
    23:00 +3°C° 0 mm 1 mps 744 mmHg 89%

    22 January, Tuesday

    Time Temperature Precipitation Wind Pressure Humidity
    00:00 +2°C° 0 mm 2 mps 744 mmHg 89%
    01:00 +2°C° 0 mm 2 mps 744 mmHg 88%
    02:00 +2°C° 0 mm 2 mps 744 mmHg 88%
    03:00 +1°C° 0 mm 2 mps 744 mmHg 88%
    04:00 +1°C° 0 mm 2 mps 743 mmHg 87%
    05:00 +1°C° 0 mm 2 mps 743 mmHg 87%
    06:00 +1°C° 0 mm 2 mps 743 mmHg 87%
    07:00 +1°C° 0 mm 2 mps 743 mmHg 87%
    08:00 +1°C° 0 mm 2 mps 743 mmHg 87%
    09:00 +1°C° 0 mm 3 mps 743 mmHg 83%
    10:00 +2°C° 0 mm 3 mps 742 mmHg 79%
    11:00 +3°C° 0 mm 4 mps 742 mmHg 75%
    12:00 +4°C° 0 mm 4 mps 741 mmHg 73%
    13:00 +4°C° 0 mm 4 mps 740 mmHg 72%
    14:00 +5°C° 0 mm 5 mps 740 mmHg 70%
    15:00 +4°C° 0 mm 4 mps 739 mmHg 73%
    16:00 +4°C° 0 mm 4 mps 738 mmHg 76%
    17:00 +3°C° 0 mm 4 mps 738 mmHg 80%
    18:00 +3°C° 0 mm 4 mps 737 mmHg 81%
    19:00 +3°C° 0 mm 4 mps 737 mmHg 83%
    20:00 +3°C° 0 mm 4 mps 736 mmHg 84%
    21:00 +3°C° 0 mm 4 mps 736 mmHg 84%
    22:00 +3°C° 0 mm 4 mps 735 mmHg 85%
    23:00 +3°C° 0 mm 4 mps 734 mmHg 85%

    23 January, Wednesday

    Time Temperature Precipitation Wind Pressure Humidity
    00:00 +4°C° 0 mm 4 mps 734 mmHg 85%
    01:00 +4°C° 0 mm 4 mps 733 mmHg 86%
    02:00 +4°C° 0 mm 4 mps 732 mmHg 86%
    03:00 +4°C° 0.2 mm 4 mps 731 mmHg 87%
    04:00 +4°C° 0.2 mm 3 mps 730 mmHg 87%
    05:00 +4°C° 0.2 mm 3 mps 730 mmHg 87%
    06:00 +4°C° 0 mm 3 mps 729 mmHg 88%
    07:00 +4°C° 0 mm 3 mps 729 mmHg 89%
    08:00 +5°C° 0 mm 2 mps 729 mmHg 89%
    09:00 +6°C° 0 mm 2 mps 729 mmHg 85%
    10:00 +7°C° 0 mm 2 mps 729 mmHg 82%
    11:00 +8°C° 0 mm 2 mps 729 mmHg 78%
    12:00 +10°C° 0 mm 1 mps 728 mmHg 75%
    13:00 +10°C° 0 mm 1 mps 728 mmHg 72%
    14:00 +11°C° 0 mm 1 mps 728 mmHg 69%
    15:00 +10°C° 0 mm 1 mps 727 mmHg 72%
    16:00 +9°C° 0 mm 1 mps 727 mmHg 76%
    17:00 +8°C° 0 mm 1 mps 727 mmHg 79%
    18:00 +8°C° 0 mm 1 mps 727 mmHg 82%
    19:00 +7°C° 0 mm 1 mps 727 mmHg 85%
    20:00 +6°C° 0 mm 1 mps 727 mmHg 88%
    21:00 +6°C° 0 mm 1 mps 727 mmHg 88%
    22:00 +5°C° 0 mm 1 mps 727 mmHg 89%
    23:00 +5°C° 0 mm 1 mps 727 mmHg 89%
    Show more